Tracking 28794 objects as of 19-Apr-2024
HD Live streaming from Space Station
objects crossing your sky now

FENGYUN 1C DEB

Track FENGYUN 1C DEB now!
10-day predictions


NORAD ID: 37014
Int'l Code: 1999-025ECW
Perigee: 767.1 km
Apogee: 804.4 km
Inclination: 99.0 °
Period: 100.4 minutes
Semi major axis: 7156 km
RCS: 0.0043 m2 (small)
Launch date: May 10, 1999
Source: People's Republic of China (PRC)
Launch site: Taiyaun Space Center, China (TSC)

Note: This is SATELLITE DEBRIS
Your satellite tracking list
Your tracking list is empty




NASA's NSSDC Master Catalog

Two Line Element Set (TLE):
1 37014U 99025ECW 24103.21886973  .00009435  00000-0  33832-2 0  9996
2 37014  98.9558 199.7409 0026062 324.1150  35.8282 14.33943087742319
Source of the keplerian elements: AFSPC